Location: Albuquerque Trailhead
(34.7934°N, 106.3736°W)
Time: 05:33:59
(UTC+00:00)

Cosmos 1302 Rocket - Pass Details

Date: 20 June 2021
Orbit: 757 x 775 km, 74.0° (Epoch: 29 July)

Event Time Altitude Azimuth Distance (km) Brightness Sun altitude
Exits shadow 04:09:47 30° 162° (SSE) 1,352 4.8 -18.2°
Maximum altitude 04:12:04 51° 103° (ESE) 962 4.2 -18.5°
Drops below altitude 10° 04:17:08 10° 28° (NNE) 2,310 6.7 -19.2°
Sets 04:19:33 0° 24° (NNE) 3,237 7.6 -19.5°
